{"data":{"norad_id":68970,"intl_designator":"2026-099V","name":"STARLINK-37257","alt_names":[],"object_type":"PAYLOAD","status":"ACTIVE","operator":null,"country":"US","launch_date":"2026-05-01","launch_site_code":"AFETR","launch_vehicle":null,"mission":null,"orbit_class":"UNKNOWN","rcs_meters":null,"size_class":null,"mass_kg":null,"dimensions":null,"purposes":["comms"],"wikipedia_slug":null,"has_3d_model":false,"image_url":null,"decayed_at":null,"tle_current":{"epoch":"2026-09-19T22:59:56.452128Z","epoch_age_seconds":66185,"freshness":"FRESH","line1":"1 68970U 26099V   26262.95829227  .00008710  00000+0  26864-3 0  9992","line2":"2 68970  53.1594  78.1470 0001086  85.5630 274.5496 15.34397535 21823","mean_motion":15.34397535,"eccentricity":0.0001086,"inclination_deg":53.1594,"raan_deg":78.147,"arg_perigee_deg":85.563,"mean_anomaly_deg":274.5496,"bstar":0.00026864,"rev_number":2182,"period_min":93.847908847168,"perigee_km":461.96765067064,"apogee_km":463.45348276213,"semimajor_km":6840.8475667164,"source":"CELESTRAK","updated_at":"2026-09-20T09:00:44.055568Z"}}}